Time,TemperatureF,DewpointF,PressureIn,WindDirection,WindDirectionDegrees,WindSpeedMPH,WindSpeedGustMPH,Humidity,HourlyPrecipIn,Conditions,Clouds,dailyrainin,SoftwareType,DateUTC
2013-03-25 00:15:00,17.1,12.6,30.74,ESE,112,3.0,4.0,82,0.00,,,0.00,meteohub,2013-03-25 06:15:00,
2013-03-25 00:20:00,17.1,12.0,30.74,SE,135,3.0,4.0,80,0.00,,,0.00,meteohub,2013-03-25 06:20:00,
2013-03-25 00:26:00,17.2,11.7,-100.00,SSE,158,3.0,4.0,78,0.00,,,0.00,meteohub,2013-03-25 06:26:00,
2013-03-25 00:31:00,17.2,11.7,30.74,SSE,158,3.0,4.0,78,0.00,,,0.00,meteohub,2013-03-25 06:31:00,
2013-03-25 00:43:00,17.1,11.5,30.74,SSE,158,4.0,4.0,78,0.00,,,0.00,meteohub,2013-03-25 06:43:00,
2013-03-25 00:48:00,17.1,11.7,30.74,SSE,158,3.0,-999.0,79,0.00,,,0.00,meteohub,2013-03-25 06:48:00,
2013-03-25 00:53:00,17.1,11.7,30.74,SSE,158,2.0,4.0,79,0.00,,,0.00,meteohub,2013-03-25 06:53:00,
2013-03-25 00:58:00,16.9,11.5,30.74,SE,135,2.0,4.0,79,0.00,,,0.00,meteohub,2013-03-25 06:58:00,
2013-03-25 01:03:00,16.9,11.5,30.74,SSE,158,2.0,4.0,79,0.00,,,0.00,meteohub,2013-03-25 07:03:00,
2013-03-25 01:08:00,16.9,11.5,30.74,SSE,158,2.0,3.0,79,0.00,,,0.00,meteohub,2013-03-25 07:08:00,
2013-03-25 01:13:00,16.9,11.8,30.74,SSE,158,3.0,3.0,80,0.00,,,0.00,meteohub,2013-03-25 07:13:00,
2013-03-25 01:19:00,16.9,12.4,30.74,South,180,3.0,4.0,82,0.00,,,0.00,meteohub,2013-03-25 07:19:00,
2013-03-25 01:24:00,16.9,12.9,30.74,SSE,158,4.0,4.0,84,0.00,,,0.00,meteohub,2013-03-25 07:24:00,
2013-03-25 01:29:00,16.5,12.6,30.74,SSE,158,4.0,4.0,84,0.00,,,0.00,meteohub,2013-03-25 07:29:00,
2013-03-25 01:34:00,16.3,12.0,30.74,SSE,158,2.0,6.0,83,0.00,,,0.00,meteohub,2013-03-25 07:34:00,
2013-03-25 01:40:00,16.2,11.8,30.74,ESE,112,2.0,6.0,83,0.00,,,0.00,meteohub,2013-03-25 07:40:00,
2013-03-25 01:45:00,16.0,11.7,30.74,SSE,158,3.0,6.0,83,0.00,,,0.00,meteohub,2013-03-25 07:45:00,
2013-03-25 01:50:00,16.0,12.0,30.74,WSW,248,2.0,6.0,84,0.00,,,0.00,meteohub,2013-03-25 07:50:00,
2013-03-25 01:55:00,15.6,11.8,30.74,SSW,202,3.0,6.0,85,0.00,,,0.00,meteohub,2013-03-25 07:55:00,
2013-03-25 02:00:00,15.4,12.0,30.74,SSE,158,5.0,6.0,86,0.00,,,0.00,meteohub,2013-03-25 08:00:00,
2013-03-25 02:05:00,15.1,11.7,30.74,SSE,158,3.0,6.0,86,0.00,,,0.00,meteohub,2013-03-25 08:05:00,
2013-03-25 02:11:00,14.5,10.9,30.74,SSE,158,3.0,6.0,85,0.00,,,0.00,meteohub,2013-03-25 08:11:00,
2013-03-25 02:16:00,14.2,10.8,30.74,SSE,158,3.0,6.0,86,0.00,,,0.00,meteohub,2013-03-25 08:16:00,
2013-03-25 02:22:00,13.6,10.2,30.74,SE,135,3.0,6.0,86,0.00,,,0.00,meteohub,2013-03-25 08:22:00,
2013-03-25 02:27:00,13.3,9.9,30.74,ESE,112,3.0,6.0,86,0.00,,,0.00,meteohub,2013-03-25 08:27:00,
2013-03-25 02:32:00,13.1,9.7,30.74,ESE,112,2.0,3.0,86,0.00,,,0.00,meteohub,2013-03-25 08:32:00,
2013-03-25 02:37:00,13.3,9.9,30.74,SSE,158,3.0,3.0,86,0.00,,,0.00,meteohub,2013-03-25 08:37:00,
2013-03-25 02:42:00,13.3,9.9,30.74,SSW,202,0.0,4.0,86,0.00,,,0.00,meteohub,2013-03-25 08:42:00,
2013-03-25 02:47:00,12.7,9.3,30.74,SSW,202,0.0,4.0,86,0.00,,,0.00,meteohub,2013-03-25 08:47:00,
2013-03-25 02:52:00,12.6,9.1,30.74,SSE,158,4.0,4.0,86,0.00,,,0.00,meteohub,2013-03-25 08:52:00,
2013-03-25 02:57:00,12.7,9.3,30.74,SE,135,1.0,4.0,86,0.00,,,0.00,meteohub,2013-03-25 08:57:00,
2013-03-25 03:02:00,12.9,9.5,30.74,SSE,158,2.0,4.0,86,0.00,,,0.00,meteohub,2013-03-25 09:02:00,
2013-03-25 03:07:00,13.1,9.7,30.71,SSE,158,3.0,4.0,86,0.00,,,0.00,meteohub,2013-03-25 09:07:00,
2013-03-25 03:12:00,13.1,9.7,30.71,SSE,158,2.0,4.0,86,0.00,,,0.00,meteohub,2013-03-25 09:12:00,
2013-03-25 03:18:00,13.1,9.7,30.71,SSW,202,3.0,4.0,86,0.00,,,0.00,meteohub,2013-03-25 09:18:00,
2013-03-25 03:23:00,12.7,9.3,30.74,SSE,158,2.0,3.0,86,0.00,,,0.00,meteohub,2013-03-25 09:23:00,
2013-03-25 03:28:00,12.6,9.1,30.74,SSE,158,3.0,3.0,86,0.00,,,0.00,meteohub,2013-03-25 09:28:00,
2013-03-25 03:34:00,12.7,9.3,30.74,SSE,158,1.0,3.0,86,0.00,,,0.00,meteohub,2013-03-25 09:34:00,
2013-03-25 03:39:00,12.6,9.1,30.74,ESE,112,0.0,4.0,86,0.00,,,0.00,meteohub,2013-03-25 09:39:00,
2013-03-25 03:44:00,12.0,8.6,30.74,WNW,292,0.0,4.0,86,0.00,,,0.00,meteohub,2013-03-25 09:44:00,
2013-03-25 03:49:00,11.1,7.7,30.74,SSE,158,0.0,3.0,86,0.00,,,0.00,meteohub,2013-03-25 09:49:00,
2013-03-25 03:55:00,11.1,7.7,30.74,SSE,158,1.0,2.0,86,0.00,,,0.00,meteohub,2013-03-25 09:55:00,
2013-03-25 04:00:00,11.8,8.4,30.74,WSW,248,0.0,3.0,86,0.00,,,0.00,meteohub,2013-03-25 10:00:00,
2013-03-25 04:05:00,12.0,8.6,30.74,WSW,248,0.0,3.0,86,0.00,,,0.00,meteohub,2013-03-25 10:05:00,
2013-03-25 04:11:00,12.4,9.0,30.74,ENE,68,0.0,3.0,86,0.00,,,0.00,meteohub,2013-03-25 10:11:00,
2013-03-25 04:16:00,12.7,9.3,30.74,NNE,22,0.0,0.0,86,0.00,,,0.00,meteohub,2013-03-25 10:16:00,
2013-03-25 04:21:00,12.9,9.5,30.74,East,90,0.0,0.0,86,0.00,,,0.00,meteohub,2013-03-25 10:21:00,
2013-03-25 04:27:00,13.3,9.9,30.74,East,90,0.0,0.0,86,0.00,,,0.00,meteohub,2013-03-25 10:27:00,
2013-03-25 04:32:00,13.5,10.0,30.74,East,90,0.0,0.0,86,0.00,,,0.00,meteohub,2013-03-25 10:32:00,
2013-03-25 04:37:00,13.6,10.2,30.74,SSW,202,2.0,0.0,86,0.00,,,0.00,meteohub,2013-03-25 10:37:00,
2013-03-25 04:42:00,13.8,10.4,30.74,ESE,112,1.0,3.0,86,0.00,,,0.00,meteohub,2013-03-25 10:42:00,
2013-03-25 04:47:00,13.8,10.4,30.74,East,90,1.0,3.0,86,0.00,,,0.00,meteohub,2013-03-25 10:47:00,
2013-03-25 04:52:00,14.0,10.9,30.74,SSE,158,0.0,3.0,87,0.00,,,0.00,meteohub,2013-03-25 10:52:00,
2013-03-25 04:57:00,14.0,10.6,30.74,SSE,158,0.0,2.0,86,0.00,,,0.00,meteohub,2013-03-25 10:57:00,
2013-03-25 05:02:00,14.2,10.6,30.74,WNW,292,0.0,2.0,85,0.00,,,0.00,meteohub,2013-03-25 11:02:00,
2013-03-25 05:07:00,14.2,10.6,30.74,NNW,338,1.0,2.0,85,0.00,,,0.00,meteohub,2013-03-25 11:07:00,
2013-03-25 05:12:00,14.2,10.2,30.74,WNW,292,0.0,2.0,84,0.00,,,0.00,meteohub,2013-03-25 11:12:00,
2013-03-25 05:17:00,14.2,10.2,30.74,SSW,202,1.0,2.0,84,0.00,,,0.00,meteohub,2013-03-25 11:17:00,
2013-03-25 05:23:00,14.2,10.2,30.74,SSE,158,1.0,2.0,84,0.00,,,0.00,meteohub,2013-03-25 11:23:00,
2013-03-25 05:28:00,14.2,10.2,30.74,SSE,158,1.0,2.0,84,0.00,,,0.00,meteohub,2013-03-25 11:28:00,
2013-03-25 05:33:00,14.2,10.6,30.74,South,180,0.0,2.0,85,0.00,,,0.00,meteohub,2013-03-25 11:33:00,
2013-03-25 05:38:00,14.2,10.2,30.74,WNW,292,0.0,2.0,84,0.00,,,0.00,meteohub,2013-03-25 11:38:00,
2013-03-25 05:44:00,14.2,10.2,30.74,SSW,202,1.0,2.0,84,0.00,,,0.00,meteohub,2013-03-25 11:44:00,
2013-03-25 05:49:00,14.2,10.2,30.74,SSW,202,1.0,2.0,84,0.00,,,0.00,meteohub,2013-03-25 11:49:00,
2013-03-25 05:54:00,14.2,10.2,30.74,SSE,158,0.0,2.0,84,0.00,,,0.00,meteohub,2013-03-25 11:54:00,
2013-03-25 05:59:00,14.2,10.2,30.74,SSW,202,3.0,3.0,84,0.00,,,0.00,meteohub,2013-03-25 11:59:00,
2013-03-25 06:05:00,13.8,10.2,30.74,SSE,158,4.0,4.0,85,0.00,,,0.00,meteohub,2013-03-25 12:05:00,
2013-03-25 06:10:00,13.8,10.2,30.74,WNW,292,0.0,6.0,85,0.00,,,0.00,meteohub,2013-03-25 12:10:00,
2013-03-25 06:15:00,13.6,10.0,30.74,NNW,338,2.0,4.0,85,0.00,,,0.00,meteohub,2013-03-25 12:15:00,
2013-03-25 06:20:00,13.8,10.2,30.74,NNW,338,0.0,4.0,85,0.00,,,0.00,meteohub,2013-03-25 12:20:00,
2013-03-25 06:26:00,13.6,10.0,30.74,SSW,202,2.0,3.0,85,0.00,,,0.00,meteohub,2013-03-25 12:26:00,
2013-03-25 06:31:00,13.6,10.0,30.74,WSW,248,1.0,3.0,85,0.00,,,0.00,meteohub,2013-03-25 12:31:00,
2013-03-25 06:36:00,13.6,10.0,30.74,North,0,1.0,3.0,85,0.00,,,0.00,meteohub,2013-03-25 12:36:00,
2013-03-25 06:41:00,13.6,10.0,30.74,WNW,292,1.0,3.0,85,0.00,,,0.00,meteohub,2013-03-25 12:41:00,
2013-03-25 06:46:00,13.6,10.0,30.74,WNW,292,1.0,3.0,85,0.00,,,0.00,meteohub,2013-03-25 12:46:00,
2013-03-25 06:52:00,13.5,9.9,30.77,WNW,292,3.0,4.0,85,0.00,,,0.00,meteohub,2013-03-25 12:52:00,
2013-03-25 06:57:00,13.6,10.0,30.77,WSW,248,3.0,4.0,85,0.00,,,0.00,meteohub,2013-03-25 12:57:00,
2013-03-25 07:02:00,13.6,10.0,30.77,WNW,292,2.0,4.0,85,0.00,,,0.00,meteohub,2013-03-25 13:02:00,
2013-03-25 07:07:00,13.6,10.0,30.74,WSW,248,1.0,4.0,85,0.00,,,0.00,meteohub,2013-03-25 13:07:00,
2013-03-25 07:12:00,13.8,10.2,30.74,WNW,292,2.0,4.0,85,0.00,,,0.00,meteohub,2013-03-25 13:12:00,
2013-03-25 07:17:00,13.8,10.2,30.74,WNW,292,1.0,5.0,85,0.00,,,0.00,meteohub,2013-03-25 13:17:00,
2013-03-25 07:22:00,13.8,10.2,30.77,WNW,292,0.0,5.0,85,0.00,,,0.00,meteohub,2013-03-25 13:22:00,
2013-03-25 07:27:00,14.2,9.7,30.77,WNW,292,1.0,5.0,82,0.00,,,0.00,meteohub,2013-03-25 13:27:00,
2013-03-25 07:32:00,14.5,10.0,30.77,WNW,292,0.0,4.0,82,0.00,,,0.00,meteohub,2013-03-25 13:32:00,
2013-03-25 07:37:00,14.5,9.9,30.77,SSW,202,2.0,3.0,81,0.00,,,0.00,meteohub,2013-03-25 13:37:00,
2013-03-25 07:42:00,14.4,9.1,30.77,WSW,248,1.0,3.0,79,0.00,,,0.00,meteohub,2013-03-25 13:42:00,
2013-03-25 07:48:00,14.2,8.6,30.77,NNW,338,2.0,3.0,78,0.00,,,0.00,meteohub,2013-03-25 13:48:00,
2013-03-25 07:53:00,13.6,8.1,30.77,WSW,248,2.0,3.0,78,0.00,,,0.00,meteohub,2013-03-25 13:53:00,
2013-03-25 07:58:00,13.6,8.1,30.77,East,90,0.0,3.0,78,0.00,,,0.00,meteohub,2013-03-25 13:58:00,
2013-03-25 08:03:00,13.5,7.9,30.77,WSW,248,0.0,3.0,78,0.00,,,0.00,meteohub,2013-03-25 14:03:00,
2013-03-25 08:09:00,13.6,8.1,30.77,WNW,292,3.0,4.0,78,0.00,,,0.00,meteohub,2013-03-25 14:09:00,
2013-03-25 08:14:00,14.9,8.8,30.77,WSW,248,2.0,4.0,76,0.00,,,0.00,meteohub,2013-03-25 14:14:00,
2013-03-25 08:19:00,18.3,11.5,30.77,SSW,202,1.0,4.0,74,0.00,,,0.00,meteohub,2013-03-25 14:19:00,
2013-03-25 08:24:00,20.3,11.1,30.77,WSW,248,2.0,4.0,67,0.00,,,0.00,meteohub,2013-03-25 14:24:00,
2013-03-25 08:29:00,21.6,10.2,30.77,SSW,202,1.0,3.0,61,0.00,,,0.00,meteohub,2013-03-25 14:29:00,
2013-03-25 08:34:00,23.4,11.8,30.77,SE,135,0.0,4.0,61,0.00,,,0.00,meteohub,2013-03-25 14:34:00,
2013-03-25 08:40:00,26.1,14.9,30.77,SSE,158,2.0,4.0,62,0.00,,,0.00,meteohub,2013-03-25 14:40:00,
2013-03-25 08:45:00,28.4,15.6,30.77,ESE,112,0.0,4.0,58,0.00,,,0.00,meteohub,2013-03-25 14:45:00,
2013-03-25 08:50:00,29.3,14.7,30.77,East,90,1.0,2.0,54,0.00,,,0.00,meteohub,2013-03-25 14:50:00,
2013-03-25 08:56:00,32.2,17.4,30.77,SSE,158,1.0,2.0,54,0.00,,,0.00,meteohub,2013-03-25 14:56:00,
2013-03-25 09:01:00,33.8,18.1,30.77,SSE,158,2.0,2.0,52,0.00,,,0.00,meteohub,2013-03-25 15:01:00,
2013-03-25 09:06:00,34.3,18.1,30.77,SSE,158,3.0,3.0,51,0.00,,,0.00,meteohub,2013-03-25 15:06:00,
2013-03-25 09:11:00,34.3,15.8,30.77,SSE,158,4.0,4.0,46,0.00,,,0.00,meteohub,2013-03-25 15:11:00,
2013-03-25 09:16:00,34.0,14.9,30.77,SSE,158,3.0,4.0,45,0.00,,,0.00,meteohub,2013-03-25 15:16:00,
2013-03-25 09:22:00,33.4,14.0,30.77,SSE,158,2.0,4.0,44,0.00,,,0.00,meteohub,2013-03-25 15:22:00,
2013-03-25 09:27:00,34.2,14.5,30.77,SSE,158,4.0,4.0,44,0.00,,,0.00,meteohub,2013-03-25 15:27:00,
2013-03-25 09:32:00,32.7,13.3,30.77,SSW,202,4.0,4.0,44,0.00,,,0.00,meteohub,2013-03-25 15:32:00,
2013-03-25 09:37:00,33.8,13.8,30.77,SSE,158,3.0,4.0,43,0.00,,,0.00,meteohub,2013-03-25 15:37:00,
2013-03-25 09:42:00,36.0,15.1,30.77,SSE,158,3.0,4.0,42,0.00,,,0.00,meteohub,2013-03-25 15:42:00,
2013-03-25 09:48:00,34.9,14.2,30.77,ESE,112,4.0,4.0,42,0.00,,,0.00,meteohub,2013-03-25 15:48:00,
2013-03-25 09:53:00,34.5,13.8,30.77,SSE,158,6.0,6.0,42,0.00,,,0.00,meteohub,2013-03-25 15:53:00,
2013-03-25 09:59:00,34.5,13.8,30.77,SSE,158,3.0,6.0,42,0.00,,,0.00,meteohub,2013-03-25 15:59:00,
2013-03-25 10:04:00,34.3,13.6,30.77,SSE,158,3.0,6.0,42,0.00,,,0.00,meteohub,2013-03-25 16:04:00,
2013-03-25 10:09:00,36.1,15.3,30.77,SSE,158,4.0,6.0,42,0.00,,,0.00,meteohub,2013-03-25 16:09:00,
2013-03-25 10:14:00,36.3,14.9,30.77,SSE,158,5.0,5.0,41,0.00,,,0.00,meteohub,2013-03-25 16:14:00,
2013-03-25 10:20:00,37.0,15.6,30.77,SSE,158,6.0,6.0,41,0.00,,,0.00,meteohub,2013-03-25 16:20:00,
2013-03-25 10:25:00,36.3,14.9,30.74,SSE,158,4.0,6.0,41,0.00,,,0.00,meteohub,2013-03-25 16:25:00,
2013-03-25 10:32:00,35.6,14.4,30.74,SSW,202,4.0,6.0,41,0.00,,,0.00,meteohub,2013-03-25 16:32:00,
2013-03-25 10:37:00,37.9,16.3,30.77,SSE,158,4.0,6.0,41,0.00,,,0.00,meteohub,2013-03-25 16:37:00,
2013-03-25 10:42:00,37.2,15.8,30.77,SSE,158,3.0,6.0,41,0.00,,,0.00,meteohub,2013-03-25 16:42:00,
2013-03-25 10:47:00,38.7,17.1,30.77,SSE,158,3.0,6.0,41,0.00,,,0.00,meteohub,2013-03-25 16:47:00,
2013-03-25 10:52:00,39.2,16.9,30.77,SSE,158,3.0,6.0,40,0.00,,,0.00,meteohub,2013-03-25 16:52:00,
2013-03-25 10:57:00,42.4,19.2,30.77,SSE,158,2.0,5.0,39,0.00,,,0.00,meteohub,2013-03-25 16:57:00,
2013-03-25 11:02:00,44.4,20.5,30.77,SSE,158,2.0,5.0,38,0.00,,,0.00,meteohub,2013-03-25 17:02:00,
2013-03-25 11:07:00,46.0,21.9,30.77,SSW,202,2.0,4.0,38,0.00,,,0.00,meteohub,2013-03-25 17:07:00,
2013-03-25 11:12:00,46.2,22.1,30.77,WSW,248,2.0,4.0,38,0.00,,,0.00,meteohub,2013-03-25 17:12:00,
2013-03-25 11:17:00,44.8,18.9,30.77,SSE,158,4.0,4.0,35,0.00,,,0.00,meteohub,2013-03-25 17:17:00,
2013-03-25 11:23:00,47.3,20.5,30.77,ENE,68,2.0,4.0,34,0.00,,,0.00,meteohub,2013-03-25 17:23:00,
2013-03-25 11:28:00,44.8,17.4,30.77,SSE,158,5.0,5.0,33,0.00,,,0.00,meteohub,2013-03-25 17:28:00,
2013-03-25 11:33:00,42.4,17.4,30.77,SSW,202,6.0,6.0,36,0.00,,,0.00,meteohub,2013-03-25 17:33:00,
2013-03-25 11:39:00,42.3,17.2,30.77,SSE,158,5.0,6.0,36,0.00,,,0.00,meteohub,2013-03-25 17:39:00,
2013-03-25 11:44:00,40.6,17.1,30.77,SSE,158,6.0,7.0,38,0.00,,,0.00,meteohub,2013-03-25 17:44:00,
2013-03-25 11:49:00,40.1,17.2,30.77,SSE,158,6.0,8.0,39,0.00,,,0.00,meteohub,2013-03-25 17:49:00,
2013-03-25 11:54:00,40.5,17.6,30.77,SSE,158,5.0,8.0,39,0.00,,,0.00,meteohub,2013-03-25 17:54:00,
2013-03-25 11:59:00,41.0,17.4,30.77,SSE,158,5.0,9.0,38,0.00,,,0.00,meteohub,2013-03-25 17:59:00,
2013-03-25 12:04:00,39.0,16.2,30.77,SSE,158,7.0,9.0,39,0.00,,,0.00,meteohub,2013-03-25 18:04:00,
2013-03-25 12:09:00,37.9,15.3,30.77,SSE,158,8.0,9.0,39,0.00,,,0.00,meteohub,2013-03-25 18:09:00,
2013-03-25 12:15:00,38.5,15.8,30.77,SSE,158,10.0,10.0,39,0.00,,,0.00,meteohub,2013-03-25 18:15:00,
2013-03-25 12:20:00,37.4,14.7,30.77,SSE,158,8.0,10.0,39,0.00,,,0.00,meteohub,2013-03-25 18:20:00,
2013-03-25 12:25:00,36.9,14.9,30.77,SSE,158,9.0,10.0,40,0.00,,,0.00,meteohub,2013-03-25 18:25:00,
2013-03-25 12:30:00,36.3,14.4,30.77,SSE,158,11.0,11.0,40,0.00,,,0.00,meteohub,2013-03-25 18:30:00,
2013-03-25 12:36:00,36.5,14.5,30.77,SSE,158,9.0,11.0,40,0.00,,,0.00,meteohub,2013-03-25 18:36:00,
2013-03-25 12:41:00,36.1,14.7,30.77,SSE,158,8.0,11.0,41,0.00,,,0.00,meteohub,2013-03-25 18:41:00,
2013-03-25 12:46:00,36.7,14.7,30.77,SSE,158,7.0,12.0,40,0.00,,,0.00,meteohub,2013-03-25 18:46:00,
2013-03-25 12:51:00,36.1,14.2,30.77,SSE,158,9.0,12.0,40,0.00,,,0.00,meteohub,2013-03-25 18:51:00,
2013-03-25 12:56:00,35.8,13.8,30.77,SSE,158,10.0,11.0,40,0.00,,,0.00,meteohub,2013-03-25 18:56:00,
2013-03-25 13:02:00,37.2,15.8,30.77,SSE,158,8.0,11.0,41,0.00,,,0.00,meteohub,2013-03-25 19:02:00,
2013-03-25 13:07:00,37.9,15.8,30.80,SSE,158,9.0,11.0,40,0.00,,,0.00,meteohub,2013-03-25 19:07:00,
2013-03-25 13:12:00,38.3,16.2,30.80,SSE,158,8.0,11.0,40,0.00,,,0.00,meteohub,2013-03-25 19:12:00,
2013-03-25 13:18:00,38.3,16.2,30.80,SSE,158,10.0,11.0,40,0.00,,,0.00,meteohub,2013-03-25 19:18:00,
2013-03-25 13:23:00,38.3,16.2,30.77,SSE,158,9.0,11.0,40,0.00,,,0.00,meteohub,2013-03-25 19:23:00,
2013-03-25 13:28:00,38.8,16.0,30.77,SSE,158,5.0,11.0,39,0.00,,,0.00,meteohub,2013-03-25 19:28:00,
2013-03-25 13:33:00,38.8,16.0,30.77,SSW,202,6.0,11.0,39,0.00,,,0.00,meteohub,2013-03-25 19:33:00,
2013-03-25 13:38:00,38.7,16.0,30.77,SSE,158,10.0,11.0,39,0.00,,,0.00,meteohub,2013-03-25 19:38:00,
2013-03-25 13:44:00,39.7,15.6,30.77,SSW,202,9.0,10.0,37,0.00,,,0.00,meteohub,2013-03-25 19:44:00,
2013-03-25 13:49:00,39.6,16.7,30.77,SSW,202,6.0,10.0,39,0.00,,,0.00,meteohub,2013-03-25 19:49:00,
2013-03-25 13:54:00,40.6,17.6,30.77,SSW,202,4.0,10.0,39,0.00,,,0.00,meteohub,2013-03-25 19:54:00,
2013-03-25 14:00:00,41.0,17.4,30.77,SSW,202,4.0,10.0,38,0.00,,,0.00,meteohub,2013-03-25 20:00:00,
2013-03-25 14:05:00,40.5,16.9,30.77,SSE,158,4.0,10.0,38,0.00,,,0.00,meteohub,2013-03-25 20:05:00,
2013-03-25 14:10:00,40.3,16.7,30.77,SSW,202,5.0,10.0,38,0.00,,,0.00,meteohub,2013-03-25 20:10:00,
2013-03-25 14:15:00,40.6,16.5,30.77,SSW,202,7.0,11.0,37,0.00,,,0.00,meteohub,2013-03-25 20:15:00,
2013-03-25 14:20:00,41.5,17.2,30.77,South,180,6.0,11.0,37,0.00,,,0.00,meteohub,2013-03-25 20:20:00,
2013-03-25 14:26:00,41.5,18.0,30.77,SSE,158,7.0,11.0,38,0.00,,,0.00,meteohub,2013-03-25 20:26:00,
2013-03-25 14:39:00,41.9,18.1,30.77,SSW,202,5.0,9.0,38,0.00,,,0.00,meteohub,2013-03-25 20:39:00,
2013-03-25 15:04:00,39.7,15.1,30.74,SSE,158,8.0,11.0,36,0.00,,,0.00,meteohub,2013-03-25 21:04:00,
2013-03-25 15:29:00,39.9,16.5,30.74,SSW,202,5.0,10.0,38,0.00,,,0.00,meteohub,2013-03-25 21:29:00,
2013-03-25 15:36:00,38.1,14.2,30.74,SSW,202,9.0,11.0,37,0.00,,,0.00,meteohub,2013-03-25 21:36:00,
2013-03-25 15:41:00,38.8,15.4,30.74,SSW,202,8.0,11.0,38,0.00,,,0.00,meteohub,2013-03-25 21:41:00,
2013-03-25 15:47:00,38.7,16.0,30.74,SSE,158,7.0,11.0,39,0.00,,,0.00,meteohub,2013-03-25 21:47:00,
2013-03-25 15:52:00,39.2,15.8,30.74,SSW,202,8.0,11.0,38,0.04,,,0.04,meteohub,2013-03-25 21:52:00,
2013-03-25 15:57:00,38.7,15.3,30.74,SSW,202,6.0,12.0,38,0.04,,,0.04,meteohub,2013-03-25 21:57:00,
2013-03-25 16:02:00,38.7,16.0,30.74,SSE,158,6.0,12.0,39,0.04,,,0.04,meteohub,2013-03-25 22:02:00,
2013-03-25 16:07:00,39.4,16.5,30.74,SSW,202,4.0,12.0,39,0.04,,,0.04,meteohub,2013-03-25 22:07:00,
2013-03-25 16:12:00,38.8,15.4,30.74,SSE,158,9.0,12.0,38,0.04,,,0.04,meteohub,2013-03-25 22:12:00,
2013-03-25 16:17:00,38.3,15.6,30.74,SSE,158,7.0,11.0,39,0.04,,,0.04,meteohub,2013-03-25 22:17:00,
2013-03-25 16:22:00,37.9,15.3,30.74,SSE,158,7.0,13.0,39,0.04,,,0.04,meteohub,2013-03-25 22:22:00,
2013-03-25 16:28:00,38.1,15.4,30.74,SSE,158,7.0,13.0,39,0.04,,,0.04,meteohub,2013-03-25 22:28:00,
2013-03-25 16:33:00,36.7,12.9,30.74,SSE,158,11.0,12.0,37,0.04,,,0.04,meteohub,2013-03-25 22:33:00,
2013-03-25 16:38:00,36.7,12.9,30.74,SSW,202,13.0,13.0,37,0.04,,,0.04,meteohub,2013-03-25 22:38:00,
2013-03-25 16:43:00,37.0,14.4,30.74,SSE,158,8.0,13.0,39,0.04,,,0.04,meteohub,2013-03-25 22:43:00,
2013-03-25 16:48:00,37.6,14.4,30.74,SSE,158,9.0,13.0,38,0.00,,,0.04,meteohub,2013-03-25 22:48:00,
2013-03-25 16:53:00,37.6,14.4,30.74,SSW,202,6.0,13.0,38,0.00,,,0.04,meteohub,2013-03-25 22:53:00,
2013-03-25 16:58:00,37.0,13.3,30.74,SSE,158,8.0,9.0,37,0.00,,,0.04,meteohub,2013-03-25 22:58:00,
2013-03-25 17:04:00,36.7,12.9,30.74,SSE,158,8.0,12.0,37,0.00,,,0.04,meteohub,2013-03-25 23:04:00,
2013-03-25 17:09:00,36.7,12.9,30.74,SSE,158,14.0,14.0,37,0.00,,,0.04,meteohub,2013-03-25 23:09:00,
2013-03-25 17:15:00,36.7,13.5,30.74,SSE,158,6.0,13.0,38,0.00,,,0.04,meteohub,2013-03-25 23:15:00,
2013-03-25 17:20:00,35.8,12.7,30.74,SSE,158,6.0,14.0,38,0.00,,,0.04,meteohub,2013-03-25 23:20:00,
2013-03-25 17:25:00,36.3,12.6,30.74,SSE,158,9.0,12.0,37,0.00,,,0.04,meteohub,2013-03-25 23:25:00,
2013-03-25 17:30:00,35.8,12.2,30.74,SSE,158,8.0,12.0,37,0.00,,,0.04,meteohub,2013-03-25 23:30:00,
2013-03-25 17:36:00,35.2,11.7,30.74,SSE,158,9.0,11.0,37,0.00,,,0.04,meteohub,2013-03-25 23:36:00,
2013-03-25 17:41:00,34.9,11.3,30.74,SSE,158,8.0,11.0,37,0.00,,,0.04,meteohub,2013-03-25 23:41:00,
2013-03-25 17:46:00,34.9,11.3,30.74,SSW,202,6.0,11.0,37,0.00,,,0.04,meteohub,2013-03-25 23:46:00,
2013-03-25 17:52:00,34.9,11.8,30.74,South,180,7.0,11.0,38,0.00,,,0.04,meteohub,2013-03-25 23:52:00,
2013-03-25 17:57:00,34.9,11.3,30.74,SSW,202,5.0,9.0,37,0.00,,,0.04,meteohub,2013-03-25 23:57:00,
2013-03-25 18:02:00,34.0,11.7,-100.00,SSE,158,9.0,9.0,39,0.00,,,0.04,meteohub,2013-03-26 00:02:00,
2013-03-25 18:07:00,34.0,11.7,30.74,SSE,158,5.0,9.0,39,0.00,,,0.00,meteohub,2013-03-26 00:07:00,
2013-03-25 18:13:00,33.8,12.0,30.74,SSE,158,4.0,9.0,40,0.00,,,0.00,meteohub,2013-03-26 00:13:00,
2013-03-25 18:18:00,33.3,11.7,30.74,South,180,4.0,9.0,40,0.00,,,0.00,meteohub,2013-03-26 00:18:00,
2013-03-25 18:23:00,33.1,11.5,30.74,SSE,158,6.0,8.0,40,0.00,,,0.00,meteohub,2013-03-26 00:23:00,
2013-03-25 18:28:00,32.5,11.5,30.74,South,180,6.0,8.0,41,0.00,,,0.00,meteohub,2013-03-26 00:28:00,
2013-03-25 18:34:00,32.2,11.1,30.74,SSW,202,3.0,7.0,41,0.00,,,0.00,meteohub,2013-03-26 00:34:00,
2013-03-25 18:39:00,29.8,9.5,30.74,SSE,158,4.0,6.0,42,0.00,,,0.00,meteohub,2013-03-26 00:39:00,
2013-03-25 18:44:00,28.8,8.6,30.74,SSE,158,2.0,7.0,42,0.00,,,0.00,meteohub,2013-03-26 00:44:00,
2013-03-25 18:50:00,27.7,8.1,30.74,SSE,158,3.0,7.0,43,0.00,,,0.00,meteohub,2013-03-26 00:50:00,
2013-03-25 18:55:00,27.0,7.5,30.74,SSE,158,4.0,6.0,43,0.00,,,0.00,meteohub,2013-03-26 00:55:00,
2013-03-25 19:00:00,26.2,7.9,30.74,SSE,158,3.0,4.0,45,0.00,,,0.00,meteohub,2013-03-26 01:00:00,
2013-03-25 19:06:00,25.9,8.1,30.74,SSE,158,2.0,4.0,46,0.00,,,0.00,meteohub,2013-03-26 01:06:00,
2013-03-25 19:11:00,25.3,7.5,30.74,SE,135,1.0,4.0,46,0.00,,,0.00,meteohub,2013-03-26 01:11:00,
2013-03-25 19:16:00,25.2,7.9,30.74,SSE,158,2.0,4.0,47,0.00,,,0.00,meteohub,2013-03-26 01:16:00,
2013-03-25 19:21:00,24.4,8.1,30.74,East,90,2.0,3.0,49,0.00,,,0.00,meteohub,2013-03-26 01:21:00,
2013-03-25 19:27:00,23.9,8.8,30.74,ESE,112,3.0,3.0,52,0.00,,,0.00,meteohub,2013-03-26 01:27:00,
2013-03-25 19:32:00,23.7,9.1,30.74,East,90,1.0,3.0,53,0.00,,,0.00,meteohub,2013-03-26 01:32:00,
2013-03-25 19:37:00,23.4,8.8,30.74,East,90,2.0,3.0,53,0.00,,,0.00,meteohub,2013-03-26 01:37:00,
2013-03-25 19:42:00,22.8,9.5,30.74,ESE,112,2.0,3.0,56,0.00,,,0.00,meteohub,2013-03-26 01:42:00,
2013-03-25 19:47:00,22.8,9.5,30.74,ESE,112,2.0,2.0,56,0.00,,,0.00,meteohub,2013-03-26 01:47:00,
2013-03-25 19:52:00,22.8,9.9,30.74,ESE,112,3.0,3.0,57,0.00,,,0.00,meteohub,2013-03-26 01:52:00,
2013-03-25 19:57:00,22.8,9.5,30.74,ESE,112,1.0,3.0,56,0.00,,,0.00,meteohub,2013-03-26 01:57:00,
2013-03-25 20:03:00,22.5,8.8,30.74,SSE,158,2.0,3.0,55,0.00,,,0.00,meteohub,2013-03-26 02:03:00,
2013-03-25 20:08:00,22.6,9.3,30.74,SE,135,4.0,4.0,56,0.00,,,0.00,meteohub,2013-03-26 02:08:00,
2013-03-25 20:20:00,22.3,9.0,30.74,ESE,112,0.0,4.0,56,0.00,,,0.00,meteohub,2013-03-26 02:20:00,
2013-03-25 20:33:00,22.1,9.1,30.74,ESE,112,2.0,3.0,57,0.00,,,0.00,meteohub,2013-03-26 02:33:00,
2013-03-25 20:38:00,21.9,8.6,30.77,ESE,112,0.0,3.0,56,0.00,,,0.00,meteohub,2013-03-26 02:38:00,
2013-03-25 20:43:00,21.9,9.0,30.77,SSW,202,0.0,3.0,57,0.00,,,0.00,meteohub,2013-03-26 02:43:00,
2013-03-25 20:48:00,21.4,8.1,30.74,SSE,158,2.0,3.0,56,0.00,,,0.00,meteohub,2013-03-26 02:48:00,
2013-03-25 20:53:00,21.4,8.6,30.74,East,90,2.0,2.0,57,0.00,,,0.00,meteohub,2013-03-26 02:53:00,
2013-03-25 20:58:00,21.4,8.1,30.74,ESE,112,0.0,3.0,56,0.00,,,0.00,meteohub,2013-03-26 02:58:00,
2013-03-25 21:03:00,20.8,8.1,30.74,NNE,22,0.0,3.0,57,0.00,,,0.00,meteohub,2013-03-26 03:03:00,
2013-03-25 21:08:00,20.5,7.3,30.74,SSW,202,2.0,3.0,56,0.00,,,0.00,meteohub,2013-03-26 03:08:00,
2013-03-25 21:14:00,20.8,8.1,30.74,SE,135,1.0,2.0,57,0.00,,,0.00,meteohub,2013-03-26 03:14:00,
2013-03-25 21:19:00,21.6,8.8,30.77,SSE,158,2.0,3.0,57,0.00,,,0.00,meteohub,2013-03-26 03:19:00,
2013-03-25 21:24:00,20.8,8.1,30.77,ESE,112,2.0,4.0,57,0.00,,,0.00,meteohub,2013-03-26 03:24:00,
2013-03-25 21:30:00,20.3,7.5,30.77,ESE,112,1.0,4.0,57,0.00,,,0.00,meteohub,2013-03-26 03:30:00,
2013-03-25 21:35:00,20.3,7.5,30.77,SE,135,2.0,4.0,57,0.00,,,0.00,meteohub,2013-03-26 03:35:00,
2013-03-25 21:40:00,20.7,8.2,30.77,ESE,112,2.0,3.0,58,0.00,,,0.00,meteohub,2013-03-26 03:40:00,
2013-03-25 21:45:00,20.8,8.4,30.77,SSE,158,1.0,4.0,58,0.00,,,0.00,meteohub,2013-03-26 03:45:00,
2013-03-25 21:50:00,21.2,9.1,30.74,SE,135,3.0,4.0,59,0.00,,,0.00,meteohub,2013-03-26 03:50:00,
2013-03-25 21:56:00,21.0,8.6,30.74,ESE,112,3.0,4.0,58,0.00,,,0.00,meteohub,2013-03-26 03:56:00,
2013-03-25 22:00:00,20.8,8.4,30.74,ESE,112,1.0,4.0,58,0.00,,,0.00,meteohub,2013-03-26 04:00:00,
2013-03-25 22:01:00,20.7,8.2,30.74,ESE,112,1.0,4.0,58,0.00,,,0.00,meteohub,2013-03-26 04:01:00,
2013-03-25 22:03:00,20.7,8.2,30.74,SSE,158,3.0,4.0,58,0.00,,,0.00,meteohub,2013-03-26 04:03:00,
2013-03-25 22:06:00,20.7,8.2,30.74,ESE,112,3.0,3.0,58,0.00,,,0.00,meteohub,2013-03-26 04:06:00,
2013-03-25 22:11:00,20.8,8.8,30.74,ENE,68,4.0,4.0,59,0.00,,,0.00,meteohub,2013-03-26 04:11:00,
2013-03-25 22:16:00,20.8,8.4,30.74,SSE,158,0.0,6.0,58,0.00,,,0.00,meteohub,2013-03-26 04:16:00,
2013-03-25 22:22:00,19.8,7.3,30.77,ESE,112,0.0,6.0,58,0.00,,,0.00,meteohub,2013-03-26 04:22:00,
2013-03-25 22:27:00,19.6,7.2,30.77,SSE,158,0.0,6.0,58,0.00,,,0.00,meteohub,2013-03-26 04:27:00,
2013-03-25 22:32:00,19.9,7.5,30.77,East,90,0.0,3.0,58,0.00,,,0.00,meteohub,2013-03-26 04:32:00,
2013-03-25 22:37:00,19.9,7.5,30.77,SE,135,0.0,3.0,58,0.00,,,0.00,meteohub,2013-03-26 04:37:00,
2013-03-25 22:42:00,19.8,7.3,30.77,SSE,158,2.0,3.0,58,0.00,,,0.00,meteohub,2013-03-26 04:42:00,
2013-03-25 22:47:00,19.6,7.2,30.77,ESE,112,1.0,3.0,58,0.00,,,0.00,meteohub,2013-03-26 04:47:00,
2013-03-25 22:52:00,19.6,7.2,30.74,East,90,1.0,3.0,58,0.00,,,0.00,meteohub,2013-03-26 04:52:00,
2013-03-25 22:57:00,19.6,7.2,30.74,SSW,202,0.0,3.0,58,0.00,,,0.00,meteohub,2013-03-26 04:57:00,
2013-03-25 23:02:00,19.2,6.8,30.74,SE,135,1.0,2.0,58,0.00,,,0.00,meteohub,2013-03-26 05:02:00,
2013-03-25 23:07:00,19.2,6.8,30.74,ESE,112,2.0,2.0,58,0.00,,,0.00,meteohub,2013-03-26 05:07:00,
2013-03-25 23:12:00,19.4,7.0,30.74,ESE,112,2.0,2.0,58,-99.99,,,0.00,meteohub,2013-03-26 05:12:00,
2013-03-25 23:17:00,19.6,7.2,30.74,SSW,202,3.0,3.0,58,-99.99,,,0.00,meteohub,2013-03-26 05:17:00,
2013-03-25 23:23:00,19.9,7.5,30.74,SSW,202,3.0,4.0,58,-99.99,,,0.00,meteohub,2013-03-26 05:23:00,
2013-03-25 23:28:00,20.7,7.9,30.74,SSE,158,2.0,4.0,57,-99.99,,,0.00,meteohub,2013-03-26 05:28:00,
2013-03-25 23:33:00,20.7,7.5,30.74,ESE,112,1.0,4.0,56,-99.99,,,0.00,meteohub,2013-03-26 05:33:00,
2013-03-25 23:39:00,20.3,7.2,30.74,SE,135,1.0,4.0,56,-99.99,,,0.00,meteohub,2013-03-26 05:39:00,
2013-03-25 23:44:00,20.1,7.0,30.74,ESE,112,2.0,4.0,56,-99.99,,,0.00,meteohub,2013-03-26 05:44:00,
2013-03-25 23:49:00,19.6,6.4,30.74,ESE,112,3.0,4.0,56,-99.99,,,0.00,meteohub,2013-03-26 05:49:00,
2013-03-25 23:54:00,19.6,6.4,30.74,SE,135,2.0,3.0,56,-99.99,,,0.00,meteohub,2013-03-26 05:54:00,